Location: *
(37.9500°N, 27.3666°E)
Time: 05:05:33
(UTC+00:00)

COSMO-SKYMED 1 - Pass Details

Date: 24 October 2021
Orbit: 621 x 623 km, 97.9° (Epoch: 03 December)

Event Time Altitude Azimuth Distance (km) Brightness Sun altitude
Rises 16:14:27 0° 12° (NNE) 2,910 5.8 -11.2°
Reaches altitude 10° 16:16:39 10° 12° (NNE) 1,999 5.0 -11.6°
Maximum altitude 16:21:00 90° 106° (ESE) 628 2.5 -12.5°
Drops below altitude 10° 16:25:20 10° 193° (SSW) 1,983 5.4 -13.3°
Sets 16:27:30 0° 194° (SSW) 2,885 6.2 -13.8°
